Wind_Speed
15 16 16 15 15 15 15 15 13 13 14 14 13 13 13 14 14 12 12 12 12 13 13 13 13 12 11 10 10 10 9 9 8 7 6 6 5 5 4 4 4 5 4 4 4 4 3 4 5 5 5 5 4 4 5 4 4 5 4 4 5 3 3 4 5 5 4 2 2 3 2 0 1 2 2 1 1 1 1 2 2 5 2 5 6
16 18 18 18 18 17 17 17 15 14 14 14 13 14 14 14 14 13 13 13 13 13 13 13 13 12 11 11 10 10 10 9 9 8 7 7 6 5 4 3 3 3 3 2 3 3 2 2 3 3 4 3 4 4 4 3 3 3 4 4 5 4 4 3 4 4 3 2 1 1 1 1 2 1 1 0 1 2 2 1 1 2 1 4 5
15 18 20 20 19 18 17 16 15 15 15 14 14 14 15 15 14 14 14 14 14 13 14 14 13 12 12 11 10 10 10 9 9 9 9 8 7 6 5 5 4 4 3 2 3 3 2 1 2 2 2 2 3 4 3 3 5 4 4 4 4 4 5 3 1 2 3 3 2 3 4 1 4 1 2 0 1 3 3 1 3 2 2 4 5
13 15 17 18 17 16 16 14 14 15 15 15 15 15 15 15 15 15 14 14 15 14 14 14 14 13 12 11 11 10 10 10 9 9 9 8 7 7 6 6 6 6 5 4 3 3 3 2 2 2 1 1 0 2 1 2 4 4 1 1 2 2 3 3 2 2 1 1 2 2 3 3 2 1 0 2 2 2 2 1 2 3 3 5 7
10 11 12 14 15 15 15 13 13 16 17 17 17 17 16 15 15 15 15 14 14 14 14 14 14 13 12 11 11 10 10 10 10 9 9 8 6 6 7 6 7 7 7 6 5 5 4 4 3 2 2 2 2 1 1 2 3 3 3 2 2 1 1 3 4 3 4 3 3 3 3 0 1 1 4 5 3 4 4 2 3 4 4 6 9
8 9 9 10 11 12 13 12 12 14 15 14 14 14 15 15 14 14 14 15 15 14 14 14 13 13 12 11 11 11 11 11 10 9 8 8 7 7 7 7 8 8 8 8 8 7 7 6 6 5 4 4 4 3 1 1 2 2 2 3 5 5 2 3 4 4 4 5 4 3 3 4 3 2 3 4 6 8 8 6 7 8 8 9 10
9 8 9 9 9 10 10 10 11 11 11 11 10 8 10 13 15 14 15 15 15 15 14 13 13 12 12 11 11 11 11 10 10 9 8 8 8 8 8 9 9 9 9 9 8 7 7 7 7 6 6 6 5 4 3 3 4 3 2 4 6 7 3 4 6 5 5 7 7 6 4 5 5 5 4 4 6 8 7 5 7 10 12 12 11
9 10 11 12 13 13 10 8 8 9 10 12 13 11 12 15 15 15 16 16 15 14 14 14 13 13 12 12 11 10 10 9 8 8 8 8 8 9 9 10 11 11 10 8 6 5 5 5 5 4 6 8 6 4 4 4 5 5 5 6 6 6 4 5 5 5 5 8 10 9 6 6 7 6 5 6 7 7 6 6 8 13 14 14 14
7 10 12 12 12 13 11 9 8 8 8 11 14 16 16 14 12 10 10 11 11 10 10 8 8 10 9 9 9 9 8 7 6 7 8 8 8 9 10 10 11 9 7 7 6 4 4 5 4 5 8 9 7 6 6 6 6 6 6 6 7 6 6 6 5 4 6 8 10 10 8 8 8 8 7 6 4 5 8 9 11 14 15 16 17
7 8 10 11 12 12 11 10 9 9 9 10 13 14 11 9 10 9 7 6 6 7 7 5 5 8 8 8 8 7 5 4 6 9 10 9 9 8 7 7 7 4 4 4 4 3 4 4 5 7 8 9 9 9 9 10 10 10 10 9 8 8 8 7 6 7 9 10 10 10 10 10 8 6 5 5 6 7 7 9 12 14 16 18 18
8 7 8 10 12 12 11 10 8 8 9 11 12 12 9 7 9 10 9 7 6 6 5 5 6 8 9 10 8 5 3 4 7 9 9 8 7 5 3 3 2 2 4 3 3 4 3 4 4 3 4 5 6 6 6 7 8 10 13 14 12 11 10 9 8 9 11 13 12 10 10 9 8 8 8 8 8 7 7 8 11 15 17 18 18
7 8 8 9 10 10 11 10 8 8 8 10 10 10 8 7 8 9 9 9 8 8 7 7 8 7 7 7 6 4 4 5 6 7 6 6 6 3 1 1 0 1 3 3 4 4 4 4 4 3 3 3 2 2 3 4 4 6 9 13 15 15 14 12 10 8 9 12 12 10 10 11 11 10 7 6 5 6 7 9 11 14 16 16 17
7 7 8 8 8 8 8 8 8 7 6 7 8 8 7 6 7 7 7 8 8 8 8 7 7 6 5 5 4 5 8 9 9 8 7 6 6 4 1 1 1 1 2 2 2 2 2 2 3 3 3 1 1 1 2 3 5 6 6 8 13 17 18 18 17 15 11 9 8 8 9 10 10 7 5 6 8 8 9 10 11 12 13 14 16
8 7 7 7 7 7 6 7 7 6 6 5 6 7 7 6 8 8 8 8 8 8 7 7 6 5 6 8 11 11 12 11 9 8 6 4 3 3 1 1 1 2 2 1 1 1 1 1 1 1 1 1 1 1 1 1 3 5 4 3 7 10 13 14 14 15 14 10 8 7 5 5 4 3 7 10 9 7 8 10 12 13 15 17 19
9 8 8 7 7 7 6 7 7 7 7 6 5 6 6 6 8 9 9 9 9 8 9 9 8 7 8 10 11 11 10 9 8 6 5 3 3 4 3 1 1 2 2 1 1 1 1 2 3 1 2 1 3 2 1 1 1 2 1 1 1 1 4 6 6 6 7 7 6 4 3 5 5 6 10 10 9 9 11 12 13 15 17 19 19
9 8 7 7 6 6 7 6 6 6 7 7 7 6 7 8 8 9 8 8 8 9 10 10 10 8 8 9 9 10 10 8 7 6 5 5 5 4 2 2 3 3 2 2 3 2 1 1 1 1 2 1 2 1 1 2 2 2 2 4 3 2 4 7 8 7 7 7 8 7 7 9 10 11 12 12 13 14 13 13 14 15 17 17 17
7 6 6 6 5 5 5 4 4 4 5 6 7 7 7 8 8 8 8 8 8 9 9 9 9 9 8 9 9 9 9 8 7 6 6 6 6 3 3 3 4 3 2 3 3 1 2 2 2 4 4 2 0 1 1 1 2 4 4 5 4 4 4 7 8 9 9 8 9 10 11 12 13 13 13 14 14 14 13 12 13 13 15 16 16
5 5 5 5 4 4 4 3 3 3 3 4 5 5 5 6 6 6 7 7 7 8 8 8 8 8 8 9 9 10 9 8 7 6 5 6 6 3 3 3 3 2 3 4 4 2 4 5 6 5 4 2 1 1 0 1 4 5 5 6 7 6 5 4 5 6 8 9 10 12 13 14 14 15 15 14 13 12 11 11 11 12 14 14 15
5 4 3 3 2 2 2 1 0 1 2 2 3 4 3 4 4 5 6 7 7 8 8 8 8 8 8 8 9 10 10 8 8 6 5 5 5 3 4 4 3 2 2 3 4 4 3 3 4 3 2 2 2 1 2 2 3 3 3 6 7 5 6 5 3 2 5 8 10 11 13 14 14 15 15 13 12 11 9 9 10 11 12 13 15
6 4 3 3 3 2 2 3 3 4 4 4 4 5 5 5 5 6 6 7 8 8 9 9 9 9 8 8 8 9 9 10 9 7 6 5 5 3 4 4 4 4 4 4 5 6 5 2 3 3 3 3 2 2 3 3 2 3 2 4 3 3 4 2 3 5 6 8 9 10 11 11 12 12 11 12 13 11 9 8 8 9 13 16 17
6 6 5 5 5 4 4 5 5 5 6 6 6 7 7 7 8 8 8 9 9 9 9 9 10 10 8 9 10 8 9 11 11 10 9 6 5 4 2 2 2 3 3 4 5 7 10 6 4 5 4 4 4 3 4 4 1 1 3 5 4 2 2 4 7 9 9 9 10 11 11 10 10 10 10 12 13 11 9 9 10 12 15 18 18
7 7 7 7 6 6 6 6 5 6 7 7 8 8 8 9 9 9 10 11 10 10 10 10 11 11 10 10 10 9 11 13 13 12 11 8 7 5 1 1 3 2 2 5 6 3 12 9 4 6 6 5 5 4 3 3 2 3 5 6 7 8 8 7 7 9 9 9 9 10 10 10 11 11 11 11 11 10 11 13 16 16 18 19 22
9 8 8 8 8 8 8 8 8 8 9 10 10 10 9 10 10 11 12 12 12 12 13 13 13 13 12 12 11 10 13 15 15 14 13 11 9 7 4 4 5 3 3 5 4 6 12 7 5 7 7 6 5 4 3 2 3 4 5 6 7 7 7 6 7 8 8 8 9 10 10 10 10 10 9 9 10 11 12 15 17 17 16 19 23
10 10 10 10 10 10 10 10 10 11 11 12 13 13 12 12 12 12 13 14 14 14 15 16 16 16 14 14 14 13 14 15 16 16 15 13 11 10 9 8 7 6 4 5 2 9 10 6 6 8 8 6 5 4 3 2 4 4 4 6 5 3 3 4 6 7 7 8 9 9 9 9 8 8 9 10 12 12 13 16 17 16 15 17 19
11 11 12 12 11 12 12 12 13 12 13 13 14 15 16 16 16 16 16 16 16 17 17 18 17 17 17 16 16 16 15 16 18 19 17 15 13 12 11 11 11 10 7 4 5 9 8 6 7 9 8 5 3 3 3 3 4 4 4 3 1 1 2 4 5 6 7 8 8 8 8 8 8 8 10 12 13 13 14 15 15 15 15 17 17
12 12 12 13 14 14 14 15 15 14 14 15 16 17 18 18 19 20 19 18 18 18 20 19 17 16 17 17 16 16 15 14 18 21 19 16 15 14 13 13 14 13 10 8 9 10 8 7 8 9 7 5 3 3 3 3 3 3 3 3 1 2 3 3 5 7 7 7 6 7 8 9 9 10 12 13 13 13 13 14 14 14 15 16 16
13 13 13 14 15 16 16 16 16 15 15 16 17 18 19 19 20 20 20 20 19 19 21 21 18 17 17 17 15 16 19 18 17 19 20 18 16 16 15 14 15 15 13 11 11 10 10 9 9 8 7 5 5 6 6 4 2 0 1 0 1 2 2 3 4 5 6 6 7 8 9 10 11 12 12 12 12 12 12 13 14 15 15 15 17
14 15 15 15 15 16 16 17 17 17 18 18 18 19 19 19 20 21 21 18 17 18 20 17 14 15 17 19 17 17 22 24 21 18 18 16 14 14 14 14 14 13 13 12 12 12 11 10 9 8 7 5 6 7 7 5 3 2 3 3 3 4 4 4 3 4 6 8 10 10 11 11 12 12 12 12 12 12 12 13 14 15 15 15 16
15 16 16 16 16 17 17 18 18 20 20 20 20 21 22 22 21 20 18 16 17 20 20 16 15 15 15 14 10 6 7 13 15 15 15 15 13 12 12 13 12 13 14 15 13 12 12 11 10 9 8 8 7 7 6 5 4 3 2 2 4 4 4 4 5 6 8 10 10 10 11 11 12 12 12 12 12 12 12 13 13 14 15 15 15
15 16 16 16 17 17 17 18 19 20 21 21 22 22 24 24 22 17 14 15 18 21 22 21 22 20 13 10 5 2 1 1 7 13 15 14 12 11 12 13 13 15 17 16 13 12 12 11 10 10 9 8 7 6 5 4 4 4 3 3 4 3 3 5 7 7 8 8 9 10 10 11 12 12 12 13 13 13 13 13 13 14 14 14 15
16 15 15 15 16 16 17 17 18 19 20 20 21 21 21 22 22 20 18 17 15 16 18 18 17 17 15 8 4 5 7 8 9 10 11 9 9 12 15 15 15 16 17 14 12 11 11 10 10 9 8 7 6 5 4 3 3 4 3 3 3 2 3 5 4 6 8 8 9 10 10 11 12 12 12 13 14 14 14 13 13 14 14 14 15
17 17 16 16 16 17 17 17 17 18 19 19 19 20 20 19 18 18 18 18 15 14 14 13 11 11 13 12 9 7 8 8 7 6 6 6 8 13 16 17 16 16 14 12 11 10 10 10 9 9 8 7 5 4 4 4 3 3 3 4 3 3 4 4 4 5 7 9 9 10 11 11 12 12 13 14 14 14 14 14 14 14 14 14 15
18 17 16 16 16 16 17 17 17 17 19 19 19 20 21 21 19 15 14 16 17 15 14 13 11 10 9 8 8 8 8 7 6 5 5 5 8 13 16 16 16 15 14 12 10 10 10 9 9 8 7 6 5 5 4 4 3 3 3 3 3 3 5 7 6 4 6 8 9 10 11 11 12 13 13 13 14 14 14 14 14 14 14 14 15
17 16 16 16 16 16 16 16 16 17 17 18 19 19 19 20 20 18 15 13 12 14 16 16 14 13 11 10 8 8 8 8 8 6 6 6 8 13 16 16 14 14 15 13 10 10 10 9 8 8 7 7 6 5 5 4 3 3 2 3 3 3 4 7 6 5 6 8 9 9 10 11 12 13 13 13 14 14 14 14 14 13 13 14 14
16 16 16 16 16 16 16 17 17 18 17 16 16 17 17 16 16 18 17 13 12 14 15 15 15 17 17 15 13 12 11 11 11 11 10 10 10 13 16 16 15 16 16 13 11 10 10 9 8 8 7 6 6 5 5 4 3 3 2 2 3 3 3 5 5 6 7 7 8 9 10 11 12 12 13 14 14 14 14 14 14 13 14 14 14
14 14 14 15 15 15 16 17 18 16 14 12 11 11 13 13 12 13 15 13 13 15 14 9 10 11 11 10 11 13 13 13 14 14 14 14 14 16 17 16 16 16 16 14 12 11 10 10 9 8 6 7 7 6 5 4 3 3 2 1 2 2 3 4 4 5 5 6 8 10 11 11 12 12 13 14 14 14 14 14 13 14 14 14 15
13 13 12 12 12 13 15 16 15 12 10 10 11 10 11 12 12 12 13 12 12 13 12 7 8 8 7 7 9 11 12 12 13 13 12 13 15 18 17 16 15 15 15 14 12 11 10 9 9 8 8 7 7 5 4 4 3 2 1 2 3 2 3 4 3 3 5 7 9 10 11 11 11 12 12 13 13 13 13 13 13 14 14 15 16
12 12 13 14 14 15 16 14 11 9 9 10 11 12 12 13 12 12 14 14 11 10 11 9 8 10 11 10 8 10 11 12 12 12 12 15 19 19 17 14 14 15 14 12 11 11 10 9 8 8 9 8 6 5 4 3 3 2 1 3 3 2 4 5 3 3 5 8 9 10 10 11 11 11 12 12 12 12 12 12 13 14 14 15 15
11 13 14 15 14 15 14 12 10 9 9 10 11 12 12 12 12 12 12 12 11 10 10 11 12 11 8 9 10 9 9 11 12 13 15 18 20 19 15 14 14 15 13 12 12 12 11 9 8 8 8 7 6 5 4 3 3 2 1 3 3 3 4 5 3 4 6 7 8 9 10 11 11 11 11 11 11 11 12 12 13 14 14 15 16
12 14 13 11 10 11 11 9 9 9 9 10 11 11 11 11 12 12 12 11 11 11 10 11 12 11 5 6 11 10 8 9 10 11 13 16 17 17 15 15 15 15 14 13 13 12 12 11 10 9 7 6 5 4 4 3 2 2 1 2 3 3 4 4 4 5 6 7 8 9 10 11 11 11 11 10 11 12 13 13 13 14 15 15 17
11 13 13 10 8 7 6 5 7 9 9 9 10 10 10 10 9 9 10 11 11 12 12 13 11 6 2 5 8 8 6 8 10 12 14 16 17 16 15 15 16 15 14 14 13 13 12 11 10 9 7 6 6 5 4 2 1 1 1 2 3 4 4 4 4 5 6 7 8 9 10 11 11 11 11 11 12 13 13 13 13 14 15 16 17
11 13 12 7 3 4 5 6 7 9 9 8 8 7 7 7 6 7 9 10 11 10 9 8 5 1 2 5 5 5 6 8 11 13 14 14 14 13 14 15 16 15 13 13 13 13 12 11 10 9 8 6 4 4 3 2 1 1 2 2 3 4 4 5 5 5 7 7 7 9 10 11 12 12 12 12 13 12 12 13 14 15 15 16 17
9 8 5 3 4 5 6 7 7 8 9 9 8 7 6 5 3 3 4 3 4 3 3 3 2 2 3 6 7 7 8 10 12 13 13 15 17 16 14 14 14 13 13 13 12 12 12 11 10 9 6 4 3 4 4 4 3 3 3 4 4 4 5 5 6 6 7 7 8 9 10 11 12 12 12 12 12 12 13 14 15 15 16 17 17
7 7 6 5 4 5 6 7 7 8 8 8 8 7 6 6 5 5 4 5 4 5 6 6 7 8 9 10 12 14 17 19 19 18 19 20 18 16 14 14 13 13 13 12 11 11 11 10 9 8 6 4 4 5 5 5 5 5 4 4 4 5 5 6 6 7 8 9 9 9 10 11 12 12 12 12 12 12 14 15 15 16 16 16 16
6 5 4 3 4 5 5 6 6 8 9 9 9 8 8 9 9 9 8 8 8 8 9 10 11 13 14 15 18 21 22 22 22 20 20 19 17 15 16 15 13 13 13 11 9 9 10 9 9 8 5 5 5 5 4 4 4 4 4 4 4 4 5 6 8 9 9 9 8 9 10 11 12 12 12 12 12 13 14 16 16 17 17 16 16
4 3 3 3 4 4 5 5 6 7 8 10 9 9 9 10 11 12 12 12 11 12 13 13 13 15 17 19 21 23 23 23 22 20 18 16 15 14 14 13 12 12 11 8 6 9 12 12 10 7 5 5 5 5 5 4 3 4 4 3 3 4 6 7 9 10 10 9 8 9 10 11 11 11 11 12 13 14 16 17 17 17 16 16 16
4 3 3 4 4 4 4 4 6 7 8 9 9 9 9 10 10 11 13 13 14 14 14 14 15 17 19 21 21 22 21 21 20 19 16 14 12 12 12 12 12 12 10 7 6 8 10 10 8 6 5 5 5 5 5 4 3 4 3 2 6 7 8 9 10 10 10 11 10 10 10 10 10 10 10 12 15 16 17 16 16 16 16 16 16
5 4 4 4 4 4 4 4 5 6 7 7 7 8 8 8 9 9 11 13 14 15 16 16 17 19 21 20 19 19 19 18 17 16 15 13 12 11 10 10 11 11 10 9 8 7 7 7 7 6 5 4 4 4 4 3 2 2 0 4 7 9 9 10 10 11 11 12 12 12 11 10 10 10 11 14 17 17 16 16 16 16 16 17 17
4 4 4 4 4 4 4 4 5 6 6 6 7 7 7 7 8 8 9 11 13 13 14 16 17 18 19 19 17 16 15 15 14 13 12 11 11 10 9 10 10 10 9 9 8 7 6 5 5 5 5 4 4 3 3 2 2 3 4 6 8 9 10 10 11 11 11 12 13 13 11 10 10 10 12 15 16 16 15 16 16 16 16 16 16
4 3 3 4 4 4 4 5 5 6 6 6 7 7 7 7 8 8 8 9 10 10 11 12 13 13 14 15 14 13 12 12 11 11 10 10 9 9 9 10 10 9 9 8 8 7 5 3 2 3 4 4 3 4 4 3 4 4 6 7 8 9 9 10 10 10 11 11 13 13 12 10 10 11 13 14 14 14 15 16 16 15 15 15 15
4 4 3 5 6 7 7 7 6 6 6 6 7 7 7 8 8 8 8 9 10 10 11 12 12 12 12 12 12 12 11 10 9 9 9 9 9 9 9 9 9 8 9 8 7 7 6 4 2 2 3 3 3 3 2 3 5 6 6 7 8 9 9 10 11 10 10 10 11 12 11 11 11 12 13 12 13 14 15 16 16 15 14 14 14
Wind_Direction
165 174 180 192 201 195 193 192 182 174 172 171 170 168 166 164 165 168 170 170 170 165 159 159 161 160 159 159 157 156 153 147 145 140 133 127 120 116 119 117 109 101 95 93 82 64 61 68 71 54 35 39 35 32 53 41 27 48 45 56 80 43 3 58 100 110 98 96 129 109 86 143 169 94 86 87 60 34 133 173 336 354 315 280 307
165 170 177 195 203 193 190 190 181 176 174 171 171 172 171 173 173 173 174 176 177 174 167 164 166 167 166 166 164 163 159 156 153 148 143 138 135 134 137 134 119 115 125 128 113 101 73 66 74 55 40 33 359 11 46 3 344 58 49 38 64 48 19 58 102 114 129 151 166 160 135 301 288 143 111 14 329 283 232 194 321 335 324 303 296
167 171 178 191 197 189 186 187 180 176 174 172 175 177 177 179 180 181 180 179 181 180 173 169 171 174 174 172 173 173 168 163 161 158 154 153 152 150 152 155 150 148 165 176 154 141 141 148 120 78 55 47 356 4 35 346 342 33 50 35 52 43 21 29 84 128 152 157 214 218 162 95 311 278 147 146 360 319 288 296 326 317 331 332 310
168 174 180 188 191 187 186 185 181 176 174 176 180 181 182 183 185 186 185 183 184 184 178 175 176 179 182 183 183 182 177 172 170 168 164 163 167 169 173 176 175 178 185 189 188 176 180 200 182 164 181 144 343 339 17 353 356 17 28 40 75 73 23 351 317 303 285 202 266 286 117 118 292 304 298 242 208 252 263 243 313 311 311 331 325
169 175 183 188 190 189 185 184 183 177 177 184 186 183 183 185 188 190 190 189 188 185 183 183 183 185 189 192 191 189 186 183 182 180 175 177 182 184 191 197 195 198 201 199 202 198 197 214 219 208 221 228 231 253 10 19 1 2 345 317 346 23 303 304 310 310 307 282 262 324 5 241 241 357 330 315 312 300 290 281 303 300 283 304 315
175 179 184 188 192 193 184 182 187 183 181 186 186 184 187 188 191 193 193 194 192 190 191 190 191 194 197 199 201 198 196 198 200 198 192 195 201 203 208 211 211 213 212 208 207 204 202 212 222 229 232 239 246 243 259 309 281 314 334 283 293 315 285 273 301 298 305 301 261 251 287 278 275 292 297 326 335 320 313 309 309 318 319 315 313
175 173 176 176 177 187 190 187 185 182 183 180 173 184 198 194 196 200 199 199 197 195 199 199 197 201 202 204 208 210 207 206 206 205 208 214 215 216 221 219 216 216 212 211 214 210 209 214 217 222 231 240 249 243 237 243 241 254 258 237 273 312 306 268 291 292 306 319 300 271 256 257 265 269 280 314 305 292 295 302 308 321 326 318 309
167 163 173 174 166 172 188 196 178 170 182 183 180 195 202 195 202 208 204 204 202 200 207 207 202 205 212 214 214 214 212 209 208 211 218 224 219 219 227 226 224 220 207 201 207 211 219 228 224 220 228 238 242 224 211 215 226 247 246 233 263 300 289 273 290 290 300 315 305 291 272 254 254 254 261 277 283 295 327 342 322 314 313 310 306
166 160 168 170 166 167 176 186 182 167 167 175 185 199 200 197 215 230 222 212 203 205 221 224 208 205 214 222 213 203 204 207 211 218 221 222 222 226 233 234 233 225 199 187 189 199 220 230 234 234 230 234 235 217 209 218 230 249 250 243 254 259 261 279 286 272 275 279 275 276 273 267 267 264 258 256 279 328 340 329 310 304 306 306 304
162 159 157 157 162 169 171 176 180 171 168 181 198 208 203 198 215 231 240 223 198 206 228 244 234 214 218 239 229 202 205 216 212 222 230 229 229 234 235 238 242 216 167 178 194 197 220 216 220 239 237 235 237 232 229 237 242 245 245 247 251 241 242 263 265 253 263 268 267 271 273 272 274 278 286 297 306 308 306 299 297 301 303 302 301
150 148 143 142 150 157 158 160 161 159 170 185 198 208 208 201 205 209 212 210 209 225 232 243 245 224 220 241 240 207 204 218 213 222 229 221 215 219 212 219 249 151 131 153 180 176 191 188 192 237 240 224 231 234 243 255 255 248 244 245 244 231 229 246 251 248 259 265 266 272 280 281 276 273 286 298 293 285 290 295 294 296 298 298 299
130 128 126 128 135 138 139 144 144 145 157 166 176 192 199 193 196 205 213 220 232 242 239 239 241 229 221 234 235 210 190 182 179 183 180 173 167 158 158 174 185 101 121 137 157 160 168 172 164 169 172 179 218 247 264 285 292 271 254 246 239 231 228 234 237 246 273 280 269 265 277 282 277 281 298 309 299 301 307 300 293 295 299 299 298
113 113 118 123 128 130 133 139 140 138 142 154 171 185 188 186 184 188 204 218 223 223 220 220 222 224 219 204 173 153 147 139 136 137 134 136 136 124 89 62 89 72 84 97 113 127 147 157 150 157 165 180 285 245 255 294 312 307 289 260 246 239 237 238 239 244 264 290 282 268 275 277 273 281 289 283 292 306 307 298 297 302 301 297 295
111 112 116 121 124 128 131 132 136 143 148 157 173 176 176 187 188 179 183 192 193 186 177 168 164 173 172 147 127 126 133 129 124 125 123 121 128 127 102 69 101 92 82 81 67 60 5 324 307 163 125 89 139 158 217 301 323 328 325 284 264 257 248 246 250 250 254 267 279 282 285 274 266 281 276 277 289 302 299 296 299 300 296 292 291
100 101 105 110 117 124 127 129 133 143 151 152 157 156 151 163 176 176 176 177 173 162 148 141 140 148 149 133 122 125 130 124 120 120 118 116 125 124 118 126 146 122 104 96 69 40 6 334 321 341 80 157 212 212 238 247 273 324 3 152 245 268 218 213 216 227 233 234 240 251 250 244 250 271 276 280 289 293 294 295 295 294 292 290 287
92 94 98 100 103 109 114 119 127 137 145 145 142 143 143 148 158 162 160 159 159 153 145 143 146 147 143 133 125 126 128 124 122 120 116 121 125 129 152 166 139 121 112 104 97 85 76 56 343 73 105 164 220 199 192 203 224 253 216 175 165 173 211 215 207 204 205 205 213 226 242 256 268 274 276 282 289 292 297 296 292 291 290 288 288
81 83 89 89 86 95 103 109 120 128 140 146 143 141 142 145 151 155 155 156 157 153 149 152 157 155 152 147 138 134 136 135 131 128 129 135 138 160 208 168 126 111 122 107 93 133 180 156 119 114 120 130 88 53 125 178 225 250 225 198 191 188 219 237 231 225 230 235 243 255 265 274 281 283 284 287 289 291 294 293 293 296 293 290 289
54 58 66 70 75 85 92 101 120 133 154 158 152 151 150 150 155 162 164 167 167 166 166 167 167 167 165 160 150 146 148 148 144 140 137 142 154 200 229 170 137 122 133 111 78 88 157 151 129 116 119 126 86 17 149 203 259 258 229 225 229 202 182 206 229 242 259 270 276 281 285 287 288 288 289 290 290 291 290 287 292 297 292 290 293
21 31 31 25 39 62 53 39 88 195 223 193 164 171 182 185 185 188 192 192 187 185 185 181 176 174 170 164 159 157 159 161 160 152 141 148 165 227 268 224 180 173 182 149 101 91 126 161 155 143 131 126 103 83 173 204 293 282 240 259 257 208 163 160 185 247 286 290 290 291 292 293 295 297 297 295 296 300 295 284 286 289 289 294 299
350 347 341 326 311 294 278 270 266 263 262 253 225 220 235 241 223 212 215 213 203 199 198 192 185 181 175 169 173 172 167 171 174 165 155 159 170 211 281 263 205 204 225 203 153 135 134 166 195 177 166 167 156 142 177 198 9 30 3 328 337 124 137 180 259 286 289 280 278 279 279 279 281 282 280 279 283 292 298 291 281 278 286 294 296
331 326 319 306 295 290 279 267 263 260 260 259 247 240 242 236 223 218 226 230 220 211 212 209 202 200 192 183 188 187 175 178 185 178 168 166 170 188 286 301 214 224 228 224 218 168 146 151 198 190 179 195 192 174 188 212 240 354 318 320 325 302 278 283 289 295 291 276 271 271 270 270 268 264 262 266 268 267 271 277 275 278 286 291 291
324 319 316 311 308 304 294 284 277 267 260 259 252 240 230 223 217 216 225 232 225 213 218 222 215 211 206 197 196 190 181 185 190 184 179 179 179 193 249 161 191 251 254 246 264 160 137 147 196 200 191 197 196 194 200 210 245 282 287 292 290 285 289 290 283 282 280 276 277 279 281 282 281 277 276 279 277 270 271 278 282 286 288 286 290
316 315 314 312 307 299 288 279 272 265 260 256 251 242 231 223 218 216 221 227 221 212 216 223 223 219 215 212 209 193 182 192 198 191 187 190 190 198 214 196 196 227 255 265 270 139 146 171 211 201 202 205 198 207 220 242 282 294 293 290 290 293 296 288 272 270 276 282 285 285 284 282 284 285 286 290 292 289 290 292 292 293 291 286 290
307 306 304 300 295 290 285 277 269 263 256 250 245 241 238 233 230 227 226 227 224 218 217 221 227 228 221 216 215 200 185 193 204 198 193 195 199 202 206 205 203 203 230 280 223 151 164 208 220 201 203 203 201 224 247 270 294 303 302 300 302 311 304 277 268 273 277 280 281 282 285 289 293 294 295 299 301 300 302 302 297 295 295 291 290
294 292 289 286 284 282 279 276 271 265 259 252 246 242 238 236 236 234 232 232 233 235 234 231 228 227 221 214 211 204 192 192 199 200 198 197 200 203 204 206 208 201 204 236 205 177 184 211 204 196 200 203 217 251 257 276 305 311 316 324 327 297 284 279 286 291 285 285 289 293 298 302 299 300 306 310 310 307 303 301 296 293 292 292 291
286 283 280 278 276 273 272 271 267 263 259 254 251 248 244 240 238 237 237 239 238 241 244 240 230 226 225 219 210 203 198 194 195 198 201 200 200 202 202 203 207 206 203 203 199 196 201 202 195 194 196 192 187 201 236 283 321 345 21 57 116 258 279 292 302 297 286 292 305 304 304 306 304 309 317 314 307 303 299 297 297 295 294 295 295
281 279 276 274 272 268 266 265 264 261 259 255 252 250 246 244 244 243 241 241 241 244 246 241 232 229 226 219 208 199 198 197 195 196 199 200 198 199 199 201 204 202 199 195 192 192 195 194 192 192 189 183 184 200 229 266 297 341 359 134 217 254 287 312 315 300 285 298 314 310 306 308 307 308 311 306 300 299 299 298 297 295 295 296 296
280 278 276 275 273 269 265 264 262 259 258 256 254 252 249 249 251 249 246 244 245 251 255 252 248 247 241 231 218 202 202 205 198 188 188 189 187 188 190 195 196 188 182 186 189 189 188 184 180 183 187 191 200 212 222 222 209 225 258 265 254 252 258 270 278 277 284 299 308 307 304 305 306 307 308 306 303 302 300 299 297 296 297 298 295
281 276 273 271 270 269 266 264 260 257 256 254 252 251 252 252 252 252 254 256 253 250 254 261 264 265 271 267 243 206 223 232 211 186 178 178 176 177 182 188 190 182 179 183 181 174 173 175 178 187 195 200 209 221 223 220 227 234 238 277 278 265 266 273 269 281 303 307 303 302 303 304 305 308 308 306 305 304 303 301 299 298 298 297 294
284 279 275 270 266 265 264 262 259 256 255 253 251 251 250 248 245 244 249 253 249 244 245 252 253 250 262 288 281 169 89 254 183 174 175 176 178 185 187 186 188 187 186 184 175 166 170 181 191 199 203 206 215 224 223 225 243 239 225 256 272 273 297 290 282 303 326 318 300 299 302 304 305 307 308 307 306 305 305 303 300 298 298 295 294
279 277 275 272 269 267 264 263 263 261 257 255 254 252 249 243 235 233 238 239 234 230 230 234 235 225 212 205 192 169 159 151 153 165 174 180 192 199 195 191 193 193 190 184 176 175 183 193 200 205 209 213 214 215 216 223 238 245 244 248 247 250 272 282 303 331 325 306 300 303 302 303 306 305 305 306 305 304 303 302 300 298 296 295 296
277 276 276 275 274 272 267 264 265 265 263 261 259 256 256 250 236 227 232 236 231 225 223 221 218 212 198 178 161 168 181 176 172 183 196 205 210 207 203 200 198 197 194 188 186 192 198 203 205 204 205 207 203 201 211 223 230 241 253 256 250 249 265 288 332 338 309 299 305 306 302 303 305 304 305 305 302 301 300 298 297 296 295 294 293
279 280 279 279 279 278 273 268 266 265 263 262 259 255 254 255 248 231 222 227 231 234 235 233 232 233 224 202 188 195 211 219 214 214 225 226 212 208 206 202 199 199 195 190 196 205 204 203 203 198 195 198 195 191 202 212 214 222 246 269 269 267 285 297 307 311 304 305 307 304 302 304 304 303 304 303 300 300 299 297 298 298 297 296 295
278 278 281 285 286 283 277 271 269 269 267 263 263 260 254 253 254 249 233 219 221 231 236 236 236 238 239 235 224 214 222 237 241 237 236 228 213 207 203 195 193 198 196 193 203 209 201 197 198 194 192 189 181 182 196 202 206 215 236 268 277 289 313 313 317 331 329 316 308 306 307 307 305 304 303 301 301 302 301 299 300 300 300 301 301
277 276 277 280 280 276 273 273 272 271 269 266 266 266 261 257 256 256 250 231 212 219 228 227 229 238 243 245 245 240 233 237 245 248 245 237 222 209 198 186 182 189 193 199 209 206 196 193 190 183 183 180 172 180 193 191 200 223 230 259 285 303 321 321 332 349 343 325 316 315 312 308 306 303 301 301 301 300 301 301 301 301 302 302 301
277 275 273 273 272 271 272 275 276 275 277 282 284 277 272 270 267 264 262 251 236 239 239 213 198 222 238 235 231 231 230 232 236 236 235 233 221 205 193 184 182 187 193 201 205 198 189 184 177 172 178 179 173 178 186 189 205 222 229 276 295 310 329 333 341 346 335 324 322 320 314 311 309 306 305 305 304 302 304 305 304 304 304 302 299
278 275 273 274 279 284 286 286 285 285 293 302 296 283 274 274 272 266 262 258 256 261 261 226 170 176 197 204 211 217 220 223 225 222 221 221 212 200 194 190 188 188 194 199 198 189 178 170 167 169 174 175 175 180 187 199 210 201 209 280 274 278 315 321 325 322 319 325 331 328 321 316 313 312 313 312 310 309 309 309 309 310 308 304 300
274 273 275 278 280 284 292 300 305 304 301 295 287 280 277 277 276 271 266 263 264 273 276 259 215 189 180 179 193 210 209 206 204 200 197 198 198 196 196 195 190 189 190 189 181 173 167 161 163 173 174 174 183 193 193 205 217 199 221 272 263 272 299 299 288 294 317 327 333 333 330 325 322 321 319 315 314 315 315 316 318 315 311 307 305
277 273 273 277 278 278 286 305 324 325 314 307 300 295 293 289 283 275 271 269 267 271 277 270 255 241 207 160 156 171 181 179 180 183 185 189 193 194 191 189 189 189 184 169 156 154 155 154 163 181 186 183 190 196 188 193 212 211 241 277 279 295 314 316 317 324 329 331 331 333 335 333 328 324 321 318 319 320 320 319 318 314 311 310 308
280 276 270 272 281 284 288 305 327 333 327 320 311 300 294 292 285 274 267 263 256 254 255 251 253 262 253 154 149 157 169 175 180 182 179 181 187 190 187 184 185 184 175 162 153 152 154 157 168 184 189 182 179 182 178 187 213 222 244 295 312 320 321 321 329 335 334 331 326 327 333 336 332 329 327 325 323 322 320 319 318 317 314 312 310
281 281 275 269 281 300 315 333 343 341 334 325 317 309 303 302 296 283 272 263 254 251 249 242 238 243 209 151 148 151 174 195 193 185 180 179 183 186 183 178 178 177 167 156 153 155 157 162 170 176 177 175 176 172 164 168 211 278 333 344 347 342 330 327 339 342 333 327 324 325 330 334 335 334 331 327 324 324 323 322 322 320 317 315 315
291 291 284 274 292 347 5 9 2 357 351 342 333 329 325 318 302 283 273 265 256 249 242 233 226 218 216 208 189 172 185 195 188 182 178 171 163 159 158 162 166 165 154 146 148 151 154 161 169 170 168 167 164 153 142 141 106 44 39 25 10 358 344 342 347 344 335 328 326 327 331 335 335 333 330 328 328 329 328 326 324 323 321 321 322
315 322 337 22 37 23 21 23 20 15 12 9 5 360 356 352 339 315 298 275 250 218 178 154 124 111 187 205 196 170 149 142 144 146 142 134 130 129 134 143 146 140 134 135 141 147 154 161 163 159 152 145 129 111 102 93 72 50 46 41 27 13 359 354 351 344 335 331 328 327 331 334 334 333 332 332 332 330 326 324 326 328 326 324 325
354 7 21 33 36 36 37 33 28 25 23 24 25 26 31 42 51 56 70 87 99 110 116 120 122 125 129 137 141 135 125 119 120 119 117 117 118 117 119 125 126 124 126 130 136 149 159 156 139 128 126 125 114 100 93 92 81 60 48 43 32 17 4 357 348 336 331 332 333 329 327 328 332 334 336 336 335 332 327 325 328 330 328 326 327
6 15 19 26 38 45 41 31 29 33 32 31 35 44 55 61 63 68 79 91 101 107 112 117 122 124 121 118 119 120 118 116 114 112 110 109 109 109 113 118 121 123 126 127 135 150 152 138 124 122 124 120 112 100 91 97 93 71 53 40 25 12 358 346 340 337 337 339 337 329 323 323 329 334 335 335 334 330 324 322 325 328 330 330 328
25 34 40 38 39 43 40 34 34 37 39 41 47 58 66 67 67 70 74 78 86 96 102 105 107 111 113 113 113 115 116 115 112 109 107 107 108 112 119 125 128 131 133 132 131 132 129 126 130 136 127 114 116 112 94 77 57 44 38 17 343 340 343 341 342 345 347 343 336 327 322 321 323 327 331 332 329 323 319 321 327 332 334 332 328
54 61 59 59 64 66 59 53 53 54 52 52 56 64 68 67 66 68 70 70 73 81 87 89 93 100 106 110 110 110 111 109 108 106 104 106 111 119 128 132 132 132 135 137 127 118 118 122 133 140 132 121 121 115 101 85 60 50 46 335 312 326 340 343 342 346 347 343 337 334 331 327 323 322 325 327 322 319 321 328 335 338 337 333 328
68 70 66 75 87 87 83 82 79 73 67 63 66 73 75 71 66 66 68 73 78 83 87 90 94 100 104 105 105 105 105 104 104 103 103 106 113 116 119 122 122 123 129 134 131 123 120 122 125 124 121 119 119 110 97 84 72 71 333 292 308 329 339 336 335 340 343 342 340 338 334 328 319 311 312 318 321 322 328 336 339 339 335 330 326
61 61 61 72 87 91 90 91 91 91 90 85 81 83 86 83 77 73 73 78 83 86 90 94 98 102 104 104 104 105 105 105 105 106 107 113 117 113 107 112 121 128 133 135 133 131 132 134 136 134 131 132 126 96 63 19 319 305 308 311 322 333 334 330 332 334 334 337 342 339 331 328 326 319 315 320 325 330 335 339 338 335 332 328 326
57 60 75 79 76 78 86 83 78 84 94 93 87 86 89 89 87 86 86 88 91 93 96 100 103 104 104 104 104 104 104 105 107 109 111 114 118 119 115 116 123 129 131 130 133 132 124 116 131 150 152 153 127 83 50 335 304 321 336 332 331 333 332 332 334 330 328 334 339 334 330 338 344 332 320 322 330 333 335 335 333 331 331 332 333
53 51 55 56 55 60 71 74 65 65 77 85 86 86 87 87 89 91 92 95 98 102 104 106 106 106 105 103 101 100 102 103 105 107 111 113 116 122 124 123 123 126 126 127 130 128 119 113 115 114 109 108 102 90 53 316 324 344 343 332 333 339 339 338 337 333 329 331 332 331 335 343 336 320 315 324 333 332 330 331 333 333 334 338 341
Height
798 800 801 804 807 808 810 812 813 813 814 815 817 818 820 821 822 824 825 826 827 828 828 829 830 831 832 833 834 834 835 835 836 837 837 838 838 839 839 839 839 840 840 840 840 841 841 841 841 842 841 841 841 841 841 841 840 839 840 839 840 841 840 839 841 845 847 848 848 848 849 849 849 849 850 850 851 851 851 851 851 850 850 849 849
796 798 801 805 808 808 810 811 811 812 813 815 816 818 820 821 822 824 825 826 827 827 828 829 830 831 832 833 833 834 835 835 836 836 837 838 838 839 839 839 840 840 840 841 841 841 841 841 842 842 842 842 842 841 841 841 840 840 840 840 841 842 841 841 843 845 847 848 848 849 849 849 849 849 850 851 851 851 851 851 851 851 852 851 849
795 797 801 805 806 806 807 808 809 811 812 814 816 817 819 820 822 823 824 825 826 827 827 828 829 831 831 832 833 833 834 834 835 835 836 837 838 838 839 839 839 840 840 840 840 841 841 842 842 842 843 843 843 842 843 843 841 841 842 843 843 844 844 843 844 845 846 847 848 848 848 849 849 849 850 851 851 851 851 851 851 851 852 852 850
796 798 800 802 803 804 805 806 807 810 811 813 814 816 818 819 821 822 823 824 825 826 826 827 828 830 831 831 832 832 833 833 834 835 835 836 837 837 838 838 839 839 840 840 840 841 841 841 842 842 843 843 843 843 843 843 843 843 843 844 844 845 846 845 845 845 845 845 846 847 847 849 850 849 850 850 850 850 850 851 851 852 851 852 851
795 797 798 799 800 801 803 805 806 808 809 811 813 814 816 818 820 821 822 823 824 825 825 826 827 828 829 830 831 831 832 832 833 834 834 835 835 836 837 837 837 838 838 839 839 840 840 841 842 842 843 843 843 843 844 844 844 845 845 844 845 846 847 847 846 846 845 846 846 847 848 848 849 850 850 849 849 848 848 848 849 850 850 850 850
794 796 797 798 800 802 803 804 805 806 808 810 812 814 816 817 819 820 821 822 823 824 824 825 826 827 828 829 829 830 831 831 832 832 833 833 834 835 835 835 836 836 836 837 838 838 839 840 841 842 842 843 843 844 844 845 845 845 846 845 846 846 847 847 847 846 847 847 847 848 849 848 849 850 851 850 850 849 849 848 849 849 849 848 849
794 795 796 798 800 802 804 804 804 806 808 809 812 816 817 817 818 819 820 821 822 823 823 824 824 825 826 827 828 828 828 829 830 830 831 831 832 834 834 834 834 834 834 834 835 836 837 839 840 841 841 842 843 843 844 845 845 846 846 846 847 847 847 847 847 847 847 848 849 849 849 849 849 850 850 851 851 850 849 850 850 849 849 849 848
793 795 796 797 798 800 804 806 806 807 807 808 811 815 816 816 817 818 819 819 820 821 822 823 823 824 825 825 826 826 827 828 828 829 830 831 832 832 832 832 832 832 833 833 834 835 836 838 839 839 840 840 842 843 843 844 845 846 847 847 847 847 847 847 847 847 848 849 850 850 848 849 849 850 850 850 850 849 849 850 850 850 850 849 848
794 795 796 797 798 799 803 806 807 808 809 809 811 813 815 815 816 818 820 820 821 822 823 823 822 823 823 824 825 825 825 826 828 829 830 830 831 831 831 832 832 832 832 833 834 835 836 837 838 839 840 840 841 842 843 844 845 846 846 847 847 848 848 848 847 848 848 848 849 849 848 848 848 849 849 849 849 849 849 850 850 850 849 848 847
795 795 796 798 800 802 804 805 806 808 810 810 811 813 816 816 815 818 820 821 822 823 823 823 823 823 823 824 825 824 825 827 828 830 830 830 831 832 831 832 832 832 832 833 834 835 836 837 838 838 839 840 841 842 843 843 844 845 846 846 847 847 848 848 847 848 848 848 847 848 848 848 848 849 849 849 849 849 849 850 850 849 849 847 845
795 796 797 798 800 802 804 805 806 808 809 811 813 815 816 816 816 818 820 821 822 823 823 823 824 824 823 826 827 826 826 827 828 829 829 830 831 831 831 832 831 832 832 833 834 835 837 838 838 838 839 840 841 841 842 842 843 844 845 845 846 847 847 848 848 848 848 847 846 847 847 847 848 849 849 849 849 849 849 849 849 849 847 845 843
797 797 798 799 800 802 803 805 806 807 808 811 813 814 815 816 817 819 819 820 821 821 822 822 823 823 824 827 828 827 827 827 828 829 829 830 830 830 830 831 831 831 832 833 834 835 837 837 838 839 839 840 840 841 841 841 842 842 843 844 845 846 846 847 847 848 848 847 846 846 847 848 848 849 849 848 848 848 848 848 848 847 846 845 843
799 799 800 801 801 802 804 804 805 806 808 810 812 813 815 816 817 818 819 820 820 820 821 823 823 824 825 828 828 826 827 828 828 829 830 830 831 831 831 831 831 832 832 833 834 835 836 837 837 838 839 840 840 841 841 841 841 842 842 843 844 844 845 846 846 847 848 847 846 847 848 848 848 848 848 848 848 848 848 848 848 847 846 845 844
799 800 801 802 802 803 804 804 806 807 808 809 810 812 814 816 817 818 819 821 821 821 822 822 823 824 825 828 828 827 828 828 829 830 831 831 832 832 832 833 832 833 834 834 835 836 837 837 837 838 839 840 840 841 841 841 841 842 842 842 843 844 844 845 846 846 847 847 847 848 848 848 848 848 848 848 848 848 848 848 847 846 845 844 842
800 801 802 802 803 804 804 805 806 807 808 809 810 811 812 814 816 818 819 820 821 821 821 821 822 823 825 827 827 828 828 829 829 830 831 832 832 832 833 833 833 834 835 835 836 837 837 838 838 838 839 840 840 840 841 842 842 842 843 843 844 844 844 844 845 846 846 847 847 848 847 847 847 847 847 848 848 847 847 847 846 845 843 841 839
802 803 803 803 804 804 805 806 806 807 808 809 810 811 812 813 815 817 817 818 819 820 820 821 822 823 825 826 827 828 828 829 830 830 831 832 832 833 833 833 834 834 835 836 836 837 837 838 838 839 839 839 840 840 841 841 842 842 842 843 844 845 845 845 845 845 846 846 846 847 846 847 847 847 847 847 847 846 846 845 844 843 841 838 836
804 805 805 805 806 806 806 807 807 808 809 809 810 811 812 813 814 815 816 817 818 819 820 821 822 823 824 825 827 828 828 829 830 831 831 832 832 832 833 833 833 835 835 836 836 836 837 838 838 839 839 839 840 840 840 841 841 841 842 843 844 844 844 845 845 846 846 846 846 846 846 846 846 846 846 846 845 845 845 844 843 842 840 837 835
807 807 807 807 808 808 808 809 809 810 810 810 810 812 813 813 814 814 815 816 817 818 819 820 822 823 824 825 826 827 829 829 830 831 831 832 832 832 832 832 834 835 835 836 837 837 837 838 838 839 839 840 840 841 840 841 841 841 841 842 842 843 844 844 844 845 846 846 845 845 845 845 845 844 844 844 843 843 843 842 842 841 839 837 835
810 810 810 810 810 810 810 811 811 811 811 811 811 813 813 813 814 814 815 816 817 818 819 820 821 823 824 825 826 827 828 829 830 831 831 832 832 832 831 831 833 834 835 836 837 838 838 839 839 839 840 840 841 841 841 841 841 840 841 841 841 842 843 844 844 845 845 845 845 844 843 843 842 842 841 841 841 841 841 841 841 840 839 837 836
813 813 813 812 812 812 811 812 813 812 812 812 812 813 813 814 814 815 815 816 816 817 819 820 821 822 824 825 826 827 828 829 830 830 831 832 832 832 831 831 832 833 834 835 836 838 839 840 840 840 841 841 841 841 841 841 841 841 841 841 841 842 843 844 844 844 845 845 844 843 842 842 841 840 839 839 838 839 839 839 839 839 838 836 835
815 815 814 813 813 812 812 812 812 812 812 812 812 813 813 814 814 815 816 816 816 817 819 819 821 822 823 825 826 827 828 828 829 830 831 831 832 832 832 831 832 833 833 834 835 835 837 839 840 841 841 841 842 842 842 842 842 842 842 842 842 842 843 843 843 843 843 843 842 842 841 840 839 839 838 837 837 836 836 837 837 837 836 835 834
816 815 814 814 813 812 812 812 812 812 812 812 812 812 813 813 814 815 816 816 816 818 819 820 820 822 823 824 825 825 826 828 829 830 830 831 832 832 832 832 832 832 832 833 833 834 835 837 839 840 841 841 842 842 842 842 842 842 842 842 842 842 842 842 842 842 842 842 841 840 839 839 838 837 837 836 836 836 836 835 835 835 834 834 832
816 815 815 814 813 813 813 813 813 813 812 812 812 812 812 813 814 814 815 815 815 817 818 819 820 820 821 823 823 824 825 826 827 828 829 830 831 832 832 832 832 832 832 832 832 833 834 836 838 839 841 841 842 842 842 842 842 842 842 842 842 842 841 841 842 842 841 841 840 839 838 838 837 836 836 835 836 836 835 834 833 833 832 832 831
816 815 815 814 814 813 813 812 812 812 811 812 811 811 812 812 813 813 814 814 814 815 816 817 817 817 818 820 821 822 823 824 825 826 827 828 830 830 831 831 831 831 832 832 832 832 833 835 837 839 840 840 841 841 842 842 842 842 842 841 841 841 841 841 841 840 840 840 839 838 837 837 836 836 836 836 835 834 833 832 831 831 831 831 830
815 815 814 814 813 813 812 812 811 811 810 810 810 810 810 810 811 811 811 812 812 812 812 813 813 814 815 816 817 819 821 822 823 824 826 827 828 829 829 830 830 831 831 831 831 832 833 834 836 838 839 840 840 841 841 841 841 841 841 841 840 840 840 840 840 840 839 838 838 837 837 837 836 836 835 834 833 832 832 832 832 831 831 830 829
815 815 814 813 813 812 812 811 810 809 809 809 808 808 808 808 808 809 809 809 810 811 811 810 810 810 811 812 813 816 818 820 821 822 823 825 826 826 827 828 829 830 830 831 831 832 833 834 835 837 838 839 840 841 841 841 841 841 840 840 840 840 840 840 840 839 839 838 838 838 837 837 836 836 834 833 833 833 832 832 831 830 830 829 827
814 814 813 812 811 811 810 809 809 808 807 807 806 805 805 805 805 805 806 807 807 808 809 808 807 808 809 809 811 813 816 818 819 820 821 823 824 825 825 826 827 828 829 830 830 831 832 833 835 836 838 839 840 840 840 840 840 840 839 839 840 840 840 840 840 839 838 838 838 838 837 837 836 835 834 834 833 832 832 831 831 830 829 828 826
813 812 811 811 810 809 808 807 807 806 806 805 804 803 803 803 803 803 804 804 805 808 809 806 805 807 807 807 808 810 814 816 816 817 819 820 822 823 824 825 826 827 828 829 829 830 832 833 835 836 837 838 839 839 840 840 839 839 839 839 839 839 839 839 839 838 837 837 837 837 837 837 836 835 834 833 832 832 831 831 830 829 828 827 825
812 811 810 809 808 807 806 805 804 803 803 802 802 801 801 801 801 801 801 802 804 807 807 805 805 806 808 808 806 807 811 813 812 813 816 818 819 821 822 824 825 826 826 827 828 830 832 833 835 836 837 837 838 838 838 839 839 839 839 839 839 838 838 838 837 836 836 836 837 837 837 837 836 835 834 833 832 831 831 830 829 828 827 826 825
811 810 809 807 806 805 804 803 801 801 800 799 798 798 797 798 798 798 799 800 802 804 804 804 804 804 808 811 808 806 809 812 811 812 814 816 818 819 821 822 823 824 825 826 828 830 831 833 834 835 835 836 836 836 837 838 838 838 838 838 838 838 838 838 837 835 836 837 837 837 837 836 835 834 833 833 832 831 830 829 829 827 826 825 824
810 809 807 806 804 803 802 801 799 798 797 796 795 794 794 794 795 795 797 798 800 800 801 802 802 802 805 809 808 806 808 810 811 812 813 815 817 818 820 821 822 822 824 826 828 829 830 831 832 833 833 834 834 835 836 837 837 837 837 837 837 837 837 837 836 836 837 837 837 836 836 835 835 834 833 832 831 830 830 829 828 827 826 824 823
808 807 806 805 804 802 801 799 798 797 796 795 794 793 792 792 792 793 795 796 797 798 799 800 801 802 803 804 805 805 806 808 809 811 813 814 816 818 819 820 821 822 823 825 827 828 828 829 830 831 832 833 833 835 836 836 837 837 837 836 836 836 836 836 835 835 836 836 836 835 835 834 834 833 832 831 830 829 829 828 827 826 825 823 822
808 807 806 805 804 802 800 799 798 797 795 794 792 792 791 790 790 791 793 794 795 796 797 798 799 800 800 801 802 803 804 806 808 809 812 814 816 817 818 819 820 821 823 825 826 826 827 827 828 830 831 832 833 834 835 836 836 836 836 836 836 836 835 834 833 833 834 835 835 835 834 833 833 832 831 831 829 828 827 826 825 824 823 822 821
808 808 807 806 805 803 801 799 797 796 794 793 791 790 789 788 788 789 790 792 793 794 795 796 796 797 798 799 801 802 804 805 807 808 811 813 815 817 818 819 820 821 823 824 824 825 825 826 827 828 830 831 832 834 835 835 835 836 836 836 835 835 835 834 833 833 833 833 834 833 833 832 832 831 830 829 828 827 826 825 824 823 822 821 819
808 808 807 806 805 803 801 799 797 795 793 792 790 789 788 787 787 787 788 789 791 793 793 792 793 795 796 797 799 801 803 804 806 808 810 812 814 816 817 818 819 820 821 823 823 823 824 825 826 828 829 831 832 833 834 835 835 835 835 835 835 835 835 834 834 833 833 833 833 833 832 832 831 830 829 828 827 826 825 824 823 822 821 820 819
807 807 806 805 804 802 800 799 797 795 792 791 790 789 788 787 787 787 787 787 788 789 789 789 790 792 794 796 797 799 801 803 804 806 808 809 812 814 816 817 818 819 820 821 821 822 823 824 826 827 829 830 831 832 833 834 834 835 835 835 835 835 835 834 834 834 833 833 832 831 831 830 830 829 828 826 825 824 823 822 822 821 820 819 817
807 806 805 804 803 801 800 798 796 795 793 792 791 790 789 789 788 788 788 787 788 788 788 788 790 793 795 796 797 798 799 801 802 804 806 808 810 812 814 815 816 817 818 819 820 821 823 824 825 827 828 830 831 831 833 834 834 834 834 835 834 834 834 834 834 833 833 832 831 830 830 829 828 827 826 825 824 823 822 822 821 820 819 817 816
806 805 804 803 802 801 799 797 796 794 793 793 792 791 790 789 789 789 788 788 789 790 790 789 791 793 794 795 796 797 798 799 801 803 805 807 809 810 812 813 814 816 817 818 819 821 823 824 825 827 828 829 830 831 832 834 834 834 834 834 834 834 834 833 833 832 832 831 831 830 829 828 827 826 826 825 824 823 822 821 820 819 817 816 814
805 804 803 802 801 800 799 797 796 795 794 793 792 791 791 790 790 789 789 789 790 790 791 791 791 792 792 793 794 795 797 798 800 802 803 805 807 809 810 811 813 815 817 818 819 820 822 824 825 827 828 828 829 830 832 833 834 834 834 834 833 833 833 832 832 832 832 831 831 830 829 828 827 826 825 824 823 822 821 820 819 818 816 815 813
804 803 802 801 800 799 798 797 796 795 795 794 794 793 792 791 791 790 790 790 790 791 791 792 792 793 793 793 794 795 797 799 800 801 803 804 806 807 809 810 812 814 817 818 819 820 822 823 825 827 828 828 830 831 832 833 833 833 833 833 833 833 833 833 832 832 832 831 831 830 829 827 826 825 824 823 822 821 820 819 818 817 815 814 812
803 802 801 801 800 799 798 797 797 796 796 796 795 794 793 793 792 791 791 791 791 791 791 792 793 793 793 793 794 795 797 799 800 801 803 804 806 807 808 809 812 815 817 817 818 820 821 823 825 827 828 830 831 832 832 833 833 833 833 833 833 833 833 833 832 832 832 831 830 829 828 827 826 825 824 823 821 820 819 818 817 816 814 812 811
803 802 801 800 800 799 798 798 798 797 797 797 796 795 794 793 793 793 792 792 791 791 791 792 792 793 793 794 794 796 797 799 800 802 803 804 805 807 808 811 814 816 816 817 818 820 821 823 825 827 829 830 831 832 832 833 833 833 833 833 833 833 833 833 832 832 831 831 830 829 827 826 825 824 823 822 821 819 818 817 816 815 813 811 810
803 801 800 800 800 800 799 799 799 799 799 798 797 796 795 794 793 793 793 792 792 792 792 793 793 794 794 795 796 798 798 799 801 802 803 804 806 808 811 813 815 816 816 817 818 820 822 824 826 827 829 831 831 832 832 832 833 833 833 833 834 834 833 833 832 831 831 830 829 828 827 826 825 823 822 821 820 819 818 817 815 814 812 810 809
803 802 801 801 801 801 801 801 801 801 800 799 798 797 796 795 795 794 794 794 794 794 794 794 795 795 796 797 798 799 799 800 802 804 805 807 809 811 812 814 815 816 817 818 820 822 823 825 826 828 830 831 832 832 832 832 833 833 833 833 834 834 833 832 831 831 829 828 827 827 826 825 824 823 822 821 820 819 817 816 814 813 811 810 808
804 803 803 803 802 802 803 802 802 802 801 800 799 799 798 797 797 796 796 796 796 796 796 796 796 797 798 799 799 800 801 802 804 806 808 810 811 813 813 814 816 817 818 820 821 823 824 825 827 829 831 832 832 832 832 832 832 833 833 833 834 833 832 831 831 829 828 827 827 826 825 825 824 823 822 820 820 818 817 815 814 812 811 809 808
805 804 804 804 804 804 804 804 803 803 802 801 801 801 800 800 799 799 798 798 798 798 798 798 799 799 800 801 802 803 804 805 807 808 810 812 813 815 816 817 818 819 821 822 822 823 823 825 827 830 831 831 831 832 833 833 833 833 833 833 833 832 831 830 830 828 827 827 826 825 825 824 823 822 821 820 819 817 815 814 813 811 810 809 807
805 805 805 805 805 805 805 805 804 804 803 803 803 803 802 802 802 801 801 801 801 800 801 801 801 802 803 804 805 806 807 808 810 811 813 815 816 817 818 819 819 821 823 823 824 825 825 826 828 830 831 831 831 832 832 833 833 834 834 833 832 831 830 829 829 828 827 826 825 824 823 822 822 822 821 820 818 816 814 813 812 811 810 808 807
807 806 806 805 805 805 805 805 805 804 805 805 805 804 804 804 804 804 804 803 803 803 804 804 805 805 806 807 809 809 810 811 813 814 815 817 818 819 820 820 821 822 824 825 826 826 827 828 829 830 831 831 831 831 832 832 833 833 833 832 830 830 829 829 828 827 826 825 824 823 822 822 821 821 820 819 817 815 814 813 812 811 809 808 806
808 807 806 806 806 806 805 805 805 805 805 805 805 806 806 806 806 806 806 806 806 807 807 808 808 809 810 811 812 813 813 814 816 817 818 819 820 821 821 822 823 824 825 826 827 828 828 829 830 830 831 831 831 831 832 832 832 832 831 831 830 829 829 828 827 826 825 824 823 823 822 821 820 820 819 818 817 815 815 813 812 811 809 807 805
809 808 807 807 807 807 806 806 805 805 805 805 806 806 806 807 807 808 808 808 808 809 810 810 811 812 813 813 814 815 816 817 818 819 820 821 821 822 823 823 824 825 826 827 828 829 829 830 830 830 830 831 831 832 832 832 831 831 831 830 830 829 828 827 826 826 825 824 823 822 821 820 819 819 819 818 817 816 814 813 811 810 808 807 805
809 809 808 808 808 808 807 807 807 807 807 807 807 807 808 808 809 809 809 810 810 811 812 812 813 814 815 816 816 817 818 819 820 820 821 822 822 823 824 825 825 826 827 828 829 829 830 830 830 830 830 831 831 832 832 831 831 831 831 830 829 828 827 827 826 825 824 823 822 821 820 820 819 819 819 818 816 815 814 812 811 809 808 806 805